Location: Unspecified
(0.0000°N, 0.0000°E)
Time: 16:53:45
(UTC+00:00)

Vanguard 3 - Pass Details

Date: 07 February 2023
Orbit: 509 x 3249 km, 33.3° (Epoch: 20 March)

Event Time Altitude Azimuth Distance (km) Brightness Sun altitude
Rises 00:20:24 0° 314° (NW) 6,379 - -74.5°
Reaches altitude 10° 00:24:20 10° 317° (NW) 5,625 - -74.3°
Maximum altitude 00:42:51 64° 36° (NE) 3,476 - -73.0°
Exits shadow 00:55:57 26° 108° (ESE) 4,684 10.9 -71.4°
Drops below altitude 10° 01:01:09 10° 114° (ESE) 5,604 11.5 -70.7°
Sets 01:05:00 0° 117° (ESE) 6,358 12.0 -70.1°
